Weather Roundup
Issued by NWS Chicago, IL

Home | Current Version | Previous Version | Graphics & Text | Print | Product List | Glossary On
Versions: 1 2 3 4 5 6 7 8 9 10 11 12 13 14 15 16 17 18 19 20 21 22 23 24 25 26 27 28 29 30 31 32 33 34 35 36 37 38 39 40 41 42 43 44 45 46 47 48 49 50
353
NZUS59 KLOT 090003
HRRLOT

CHICAGO AREA WEATHER ROUNDUP
NATIONAL WEATHER SERVICE CHICAGO/ROMEOVILLE IL
600 PM CST MON FEB 08 2016

NOTE: "FAIR" INDICATES FEW OR NO CLOUDS BELOW 12,000 FEET WITH NO
SIGNIFICANT WEATHER AND/OR OBSTRUCTIONS TO VISIBILITY.

* THESE STATIONS ARE NOT UNDER NWS QUALITY CONTROL. THEY ALSO MAY NOT
  REPORT WEATHER SUCH AS PRECIPITATION OR FOG.

ILZ005-006-012>014-019>023-090100-
NORTHEAST ILLINOIS

CITY           SKY/WX    TMP DP  RH WIND       PRES   REMARKS
OHARE          CLOUDY    27  19  72 W12       29.73R WCI  17
6HR MIN TEMP:  27; 6HR MAX TEMP:  28; 6HR PCP: TRACE;

MIDWAY         CLOUDY    28  18  66 W12       29.74R WCI  18
6HR MIN TEMP:  28; 6HR MAX TEMP:  31;

AURORA         CLOUDY    26  18  71 W20G25    29.77R WCI  12
6HR MIN TEMP:  26; 6HR MAX TEMP:  28;

WAUKEGAN       CLOUDY    26  19  74 NW10G18   29.72R WCI  16
6HR MIN TEMP:  26; 6HR MAX TEMP:  29; 6HR PCP: TRACE;

DUPAGE AIRPORT CLOUDY    26  18  71 NW13      29.74R WCI  15
6HR MIN TEMP:  26; 6HR MAX TEMP:  27;

WHEELING       LGT SNOW  26  22  84 NW8       29.75R VSB 3/4 WCI  18
6HR MIN TEMP:  26; 6HR MAX TEMP:  29; 6HR PCP: TRACE;

$$

WIZ051-052-058>065-066-070>072-090100-
SOUTHEAST WISCONSIN

CITY           SKY/WX    TMP DP  RH WIND       PRES   REMARKS
MILWAUKEE      FLURRIES  26  20  77 NW12      29.71R WCI  16
6HR MIN TEMP:  25; 6HR MAX TEMP:  28; 6HR PCP:  0.02;

KENOSHA*       LGT SNOW  25  19  78 NW14      29.72R WCI  13
RACINE*        LGT SNOW  25  19  78 NW14      29.73R WCI  13
BURLINGTON     CLOUDY    23  17  78 NW13      29.74R WCI  11
WAUKESHA       CLOUDY    21  18  86 W16       29.73R WCI   7
$$

INZ001>003-010>013-019-020-090100-
NORTHWEST INDIANA

CITY           SKY/WX    TMP DP  RH WIND       PRES   REMARKS
GARY*          CLOUDY    30  21  69 W12       29.74R WCI  21
MICHIGAN CITY* NOT AVBL
RENSSELAER*    NOT AVBL
VALPARAISO     CLOUDY    28  22  78 W9        29.73R WCI  19
$$

LMZ740>746-090100-
SOUTHERN LAKE MICHIGAN

STATION/POSITION TIME  SKY/WX   TEMP WIND        PRES    VSBY
                                AIR  DIR/SP/G
                 (UTC)          (F)  (DEG/KT/KT) (MB)    (MI)
HARRISON CRIB    2300            29  280/ 13/ 15   N/A
BURNHAM HARBOR   0000            28  270/  9/ 15   N/A
CALUMET HARBOR   2300            28  280/  5/ 12 1006.2R
BURNS HARBOR     2300            29  290/ 12/ 14 1007.1R
MICHIGAN CITY    2300            29  240/ 17/ 19   N/A
$$

ABBREVIATIONS USED IN REMARKS
   TC - TEMPERATURE IN CELSIUS
  WCI - WIND CHILL INDEX
   HX - HEAT INDEX
  VSB - VISIBILITY
$$




USA.gov is the U.S. government's official web portal to all federal, state and local government web resources and services.